Tracking 22094 objects as of 17-Jan-2021
HD Live streaming from Space Station
objects crossing your sky now

COSMOS 778

Track COSMOS 778 now!
10-day predictions
COSMOS 778 is classified as:


NORAD ID: 8419
Int'l Code: 1975-103A
Perigee: 974.4 km
Apogee: 1,006.0 km
Inclination: 83.0 °
Period: 104.8 minutes
Semi major axis: 7361 km
RCS: 2.3884 m2 (large)
Launch date: November 4, 1975
Source: Commonwealth of Independent States (former USSR) (CIS)
Launch site: PLESETSK MISSILE AND SPACE COMPLEX (PKMTR)
aabbcc
Your satellite tracking list
Your tracking list is empty




NASA's NSSDC Master Catalog

Two Line Element Set (TLE):
1 08419U 75103A   21016.81705168  .00000043  00000-0  29521-4 0  9994
2 08419  82.9760 311.5338 0021450 336.4444  74.6099 13.74621509266917
Source of the keplerian elements: AFSPC